Hourly Data Report for September 16, 2021

WOODSTOCK NEWBRIDGE
NEW BRUNSWICK
Current Station Operator: ECCC - MSC

46°09'08.000" N
67°32'34.000" W
154.00 m
8105603
71606
EWD

Download Data

Hourly Data (September 2021)
Hourly Data Report for September 16, 2021
TIME
LST
Temp Definition
°C
Dew Point Definition
°C
Rel Hum Definition
%
Precip. Amount Definition
mm

Wind Dir Definition
10's deg

Wind Spd Definition
km/h
Visibility Definition
km
Stn Press Definition
kPa
Hmdx Definition


Wind Chill Definition


Weather Definition


00:00 17.6 17.2 97 0.3 21 4   99.82     LegendNANA
01:00 16.3 13.7 85 0.2 29 15   99.90     LegendNANA
02:00 13.7 12.4 92 0.0 30 7   99.96     LegendNANA
03:00 13.5 12.4 93 0.0 28 6   100.09     LegendNANA
04:00 13.1 12.2 94 0.0 27 7   100.17     LegendNANA
05:00 12.5 11.4 93 0.0 28 5   100.24     LegendNANA
06:00 11.0 9.9 94 0.0 25 2   100.40     LegendNANA
07:00 10.5 10.3 98 0.0   0   100.51     LegendNANA
08:00 12.0 11.3 96 0.0   0   100.56     LegendNANA
09:00 13.6 11.7 88 0.0 29 4   100.66     LegendNANA
10:00 15.0 11.9 81 0.0 26 5   100.75     LegendNANA
11:00 16.5 11.8 74 0.0 24 5   100.80     LegendNANA
12:00 17.5 10.0 61 0.0 27 7   100.83     LegendNANA
13:00 18.7 11.0 61 0.0 25 6   100.83     LegendNANA
14:00 19.2 10.0 55 0.0 29 4   100.78     LegendNANA
15:00 20.0 9.4 50 0.0 29 6   100.80     LegendNANA
16:00 20.5 9.4 49 0.0 25 5   100.80     LegendNANA
17:00 20.6 10.0 51 0.0 29 4   100.83     LegendNANA
18:00 18.3 13.5 74 0.0   0   100.85     LegendNANA
19:00 14.1 12.6 91 0.0   0   100.92     LegendNANA
20:00 12.0 10.9 93 0.0 12 4   100.99     LegendNANA
21:00 11.3 10.3 94 0.0 13 4   101.02     LegendNANA
22:00 10.6 9.8 95 0.0   0   101.06     LegendNANA
23:00 9.8 9.3 97 0.0   0   101.10     LegendNANA

Notes on Data Quality.

Legend

  • E = Estimated
  • M = Missing
  • NA = Not Available*
  • [empty] = Indicates an unobserved value
Date modified: